Sandakan Airport
WBKS : now visible

Airfield :











YOU CAN JOIN US ON...

 
LOGIN :

Register | Disclaimer

   EN    FR    IT 

 









Legend :    VFR   Marginal VFR   IFR   Intensive IFR   Very Intensive IFR
Visi :
Ceiling :
>= 8 km
>= 3000ft
5 to 8 km
1000 to 3000 ft
1500m to 5 km
500 to 1000 ft
800 to 1500m
200 to 500 ft
< 800m
< 200 ft
Symbols :   Thunderstorms  Fog  Heavy snow  Heavy precipitations  Wind > 20 kt






- Airport Elevation : 46 ft
- IATA code : SDK


WBKS - Sandakan

CURRENT METAR :
  • 231400Z 10004KT 060V130 9999 FEW016 29/27 Q1008

EXPIRED METARs :
  • 231300Z 09003KT 050V140 9999 FEW016 29/27 Q1008
  • 231200Z 09005KT 040V140 9999 FEW016 29/27 Q1007
  • 231100Z 09003KT 030V130 9999 FEW016 29/27 Q1007
  • 231000Z VRB03KT 9999 FEW016 29/27 Q1006

TAF TAF WBKS
Valid from the 23 at 12:00 until the 24 at 12:00 UTC


231100Z 2312/2412 VRB03KT 9999 FEW016
BECMG 2400/2402 10010KT
WBFC FIR / Asia



MET'MAP, your aeronautical weather chart ! - Copyright ORBIFLY December 2007 - Disclaimer

ORBIFLY MET'MAP TEAM :

Programming & Development : Alexandra Zaïnal
Original concept : Baudouin d'Aumeries
Technical & hardware support : Manuel Goepfert
Assistance : Marc-Olivier Méhu




SOURCES & CREDITS :

   NOAA       Earth
Advisory